Wind From: 13-12-2017 10:08 Until: 14-12-2017 06:00 warning for: Wind Level: Yellow info button

Although rather usual in this region, locally or potentially dangerous phenomena are expected. (such as local winds, summer thunderstorms, rising streams or high waves) Be aware and pay attention to the latest weather updates, especially if you carry out activities exposed to weather or close to a stream or shoreline. 


Meteo18 Weather Cam more information Meteo18 Weather Cam


Thunder radar more information blitzortung!


Rain radar more information rain snow radar


Visit our other weather sites:

Template documentation
and downloads

And another site



Weather Underground History page Text

Daily Summary for February 26, 2017 Units:  English    Metric   Both
« Previous Day
Next Day »
Daily Weekly Monthly Yearly Custom
  High: Low: Average:
Temperature: 51.6 °F 33.4 °F 43.7 °F
Dew Point: 47.7 °F 30.7 °F 39.4 °F
Humidity: 92 % 72 % 85 %
Wind Speed: 15 mph 0 mph 3.8 mph
Wind Gust: 18 mph - -
Wind:- - SW
Pressure: 30.1 in 30 in -
Precipitation: 0 in    
Historical Graphs
 
 
Tabular Data for February 26, 2017
Time Temperature Dew Point Pressure Wind Wind Speed Wind Gust Humidity Rainfall Rate (Hourly)
00:02 38.3 °F 31.5 °F 30.1 in Calm     76 % 0 in
00:12 38.1 °F 31.6 °F 30.1 in Calm     77 % 0 in
00:17 38.5 °F 32.2 °F 30.1 in Calm     78 % 0 in
00:22 38.5 °F 32.2 °F 30.1 in Calm   1 mph 78 % 0 in
00:27 38.1 °F 31.8 °F 30.1 in Calm   1 mph 78 % 0 in
00:32 37.9 °F 32 °F 30.1 in Calm   3 mph 79 % 0 in
00:42 36.9 °F 31.3 °F 30.1 in Calm   3 mph 80 % 0 in
00:47 36.7 °F 31.5 °F 30.1 in Calm   3 mph 81 % 0 in
00:52 36.3 °F 31.3 °F 30.1 in Calm   1 mph 82 % 0 in
00:57 36.1 °F 31.5 °F 30.1 in Calm   2 mph 83 % 0 in
01:02 36.1 °F 31.8 °F 30.1 in Calm   2 mph 84 % 0 in
01:12 38.5 °F 33.1 °F 30.1 in SW 2 mph 3 mph 81 % 0 in
01:17 39 °F 32.7 °F 30.1 in SSW 1 mph 3 mph 78 % 0 in
01:22 38.7 °F 32.7 °F 30.1 in SSW 2 mph 3 mph 79 % 0 in
01:27 38.5 °F 32.5 °F 30.1 in SSW 2 mph 3 mph 79 % 0 in
01:32 38.7 °F 32.7 °F 30.1 in SSW 1 mph 3 mph 79 % 0 in
01:37 38.8 °F 32.9 °F 30.1 in SW 1 mph 3 mph 79 % 0 in
01:42 39 °F 32.7 °F 30.1 in Calm   3 mph 78 % 0 in
01:47 38.8 °F 32.5 °F 30.1 in Calm   3 mph 78 % 0 in
01:52 38.7 °F 32.4 °F 30.1 in Calm   3 mph 78 % 0 in
01:57 38.5 °F 32.5 °F 30.1 in Calm   1 mph 79 % 0 in
02:02 38.5 °F 32.5 °F 30.1 in Calm   1 mph 79 % 0 in
02:12 37.6 °F 32 °F 30.1 in Calm   1 mph 80 % 0 in
02:17 37.6 °F 32.4 °F 30.1 in Calm     81 % 0 in
02:22 37.2 °F 31.6 °F 30.1 in Calm     80 % 0 in
02:32 37 °F 32 °F 30.1 in Calm     82 % 0 in
02:37 37 °F 32 °F 30.1 in Calm     82 % 0 in
02:42 36.9 °F 31.8 °F 30.1 in Calm     82 % 0 in
02:47 36.5 °F 31.5 °F 30.1 in Calm     82 % 0 in
02:57 35.8 °F 31.5 °F 30.1 in Calm     84 % 0 in
03:02 35.4 °F 31.1 °F 30.1 in Calm     84 % 0 in
03:12 35.1 °F 30.9 °F 30.1 in Calm     85 % 0 in
03:17 34.9 °F 31.1 °F 30.1 in Calm     86 % 0 in
03:22 34.9 °F 31.1 °F 30.1 in Calm     86 % 0 in
03:32 35.2 °F 31.5 °F 30.1 in Calm     86 % 0 in
03:37 35.4 °F 31.6 °F 30.1 in Calm     86 % 0 in
03:42 35.4 °F 31.6 °F 30.1 in Calm     86 % 0 in
03:47 35.4 °F 31.3 °F 30.1 in Calm     85 % 0 in
03:52 35.2 °F 31.1 °F 30.1 in Calm     85 % 0 in
03:57 35.1 °F 31.3 °F 30.1 in Calm     86 % 0 in
04:02 35.1 °F 31.3 °F 30.1 in Calm     86 % 0 in
04:12 35.1 °F 31.6 °F 30.1 in Calm   1 mph 87 % 0 in
04:17 35.1 °F 31.3 °F 30.1 in Calm   1 mph 86 % 0 in
04:22 34.7 °F 30.9 °F 30.1 in Calm   1 mph 86 % 0 in
04:27 34.3 °F 30.9 °F 30.1 in Calm   1 mph 87 % 0 in
04:32 34.3 °F 31.1 °F 30.1 in Calm   1 mph 88 % 0 in
04:37 34.3 °F 31.1 °F 30.1 in Calm     88 % 0 in
04:42 34.3 °F 31.1 °F 30.1 in Calm     88 % 0 in
04:47 34.3 °F 31.1 °F 30.1 in Calm     88 % 0 in
04:52 34.2 °F 30.9 °F 30.1 in Calm     88 % 0 in
04:57 34 °F 30.7 °F 30.1 in Calm     88 % 0 in
05:02 34 °F 30.7 °F 30.1 in Calm     88 % 0 in
05:07 34 °F 31.1 °F 30.1 in Calm     89 % 0 in
05:12 34 °F 31.1 °F 30.1 in Calm     89 % 0 in
05:22 34.2 °F 31.3 °F 30.1 in Calm     89 % 0 in
05:32 34.3 °F 31.5 °F 30.1 in Calm     89 % 0 in
05:37 34.3 °F 31.1 °F 30.1 in Calm     88 % 0 in
05:42 34.3 °F 31.1 °F 30.1 in Calm     88 % 0 in
05:47 34.3 °F 31.1 °F 30.1 in Calm     88 % 0 in
05:52 34.3 °F 31.1 °F 30.1 in Calm     88 % 0 in
05:57 34.2 °F 30.9 °F 30.1 in Calm     88 % 0 in
06:02 34.2 °F 30.9 °F 30.1 in Calm     88 % 0 in
06:07 34 °F 31.1 °F 30.1 in Calm     89 % 0 in
06:12 34 °F 31.1 °F 30.1 in Calm     89 % 0 in
06:17 34.2 °F 31.3 °F 30.1 in Calm     89 % 0 in
06:22 34.3 °F 31.5 °F 30.1 in Calm     89 % 0 in
06:27 34.5 °F 31.3 °F 30.1 in Calm     88 % 0 in
06:32 34.5 °F 31.3 °F 30.1 in Calm     88 % 0 in
06:42 34.3 °F 31.1 °F 30.1 in Calm     88 % 0 in
06:47 34.3 °F 31.5 °F 30.1 in Calm     89 % 0 in
06:52 34.3 °F 31.1 °F 30.1 in NNE 1 mph   88 % 0 in
06:57 34.2 °F 31.3 °F 30.1 in Calm     89 % 0 in
07:02 34.2 °F 31.3 °F 30.1 in Calm   2 mph 89 % 0 in
07:12 34.2 °F 31.3 °F 30.1 in Calm   2 mph 89 % 0 in
07:17 34.2 °F 31.3 °F 30.1 in Calm     89 % 0 in
07:22 34.2 °F 31.3 °F 30.1 in Calm     89 % 0 in
07:32 34 °F 31.1 °F 30.1 in Calm   1 mph 89 % 0 in
07:37 33.8 °F 30.9 °F 30.1 in Calm     89 % 0 in
07:42 33.6 °F 30.9 °F 30.1 in Calm     90 % 0 in
07:52 33.4 °F 30.7 °F 30.1 in Calm   1 mph 90 % 0 in
08:02 33.6 °F 31.3 °F 30.1 in Calm     91 % 0 in
08:07 34 °F 31.6 °F 30.1 in Calm     91 % 0 in
08:12 34.3 °F 31.6 °F 30.1 in Calm     90 % 0 in
08:22 34.9 °F 32 °F 30.1 in Calm     89 % 0 in
08:32 34.9 °F 32 °F 30.1 in Calm     89 % 0 in
08:37 34.9 °F 32 °F 30.1 in Calm   2 mph 89 % 0 in
08:42 34.9 °F 32.2 °F 30.1 in Calm   2 mph 90 % 0 in
08:52 35.2 °F 32.4 °F 30.1 in Calm   2 mph 89 % 0 in
09:02 36 °F 32.7 °F 30.1 in Calm   1 mph 88 % 0 in
09:07 36.3 °F 33.1 °F 30.1 in Calm     88 % 0 in
09:12 36.7 °F 33.3 °F 30.1 in Calm     87 % 0 in
09:17 37 °F 33.6 °F 30.1 in Calm   3 mph 87 % 0 in
09:22 37.2 °F 33.4 °F 30.1 in Calm   3 mph 86 % 0 in
09:32 38.1 °F 33.8 °F 30.1 in Calm   3 mph 84 % 0 in
09:42 39 °F 34.5 °F 30.1 in Calm   1 mph 84 % 0 in
09:52 39.9 °F 35.4 °F 30.1 in SSW 1 mph 1 mph 84 % 0 in
10:02 40.8 °F 35.4 °F 30.1 in South 1 mph 2 mph 81 % 0 in
10:12 42.1 °F 36.3 °F 30.1 in SW 3 mph 3 mph 80 % 0 in
10:17 42.4 °F 36.1 °F 30.1 in SSE 1 mph 4 mph 78 % 0 in
10:22 42.8 °F 36.1 °F 30.1 in SW 1 mph 4 mph 77 % 0 in
10:32 43.5 °F 36.5 °F 30.1 in SW 4 mph 4 mph 76 % 0 in
10:42 44.2 °F 36.5 °F 30.1 in SSW 5 mph 7 mph 74 % 0 in
10:47 44.8 °F 36.3 °F 30.1 in West 7 mph 13 mph 72 % 0 in
10:52 45 °F 36.5 °F 30.1 in SW 6 mph 13 mph 72 % 0 in
10:57 45.1 °F 37 °F 30.1 in SW 3 mph 13 mph 73 % 0 in
11:02 45.1 °F 36.7 °F 30.1 in SW 3 mph 13 mph 72 % 0 in
11:12 45.5 °F 38.1 °F 30.1 in SW 4 mph 11 mph 75 % 0 in
11:17 45.7 °F 37.9 °F 30.1 in SW 8 mph 11 mph 74 % 0 in
11:22 46 °F 38.5 °F 30.1 in SW 5 mph 11 mph 75 % 0 in
11:32 46.4 °F 38.8 °F 30.1 in SW 4 mph 10 mph 75 % 0 in
11:42 47.1 °F 39.9 °F 30.1 in SW 8 mph 8 mph 76 % 0 in
11:52 47.5 °F 40.3 °F 30.1 in SSW 7 mph 11 mph 76 % 0 in
12:02 47.7 °F 40.1 °F 30.1 in SW 9 mph 14 mph 75 % 0 in
12:12 48 °F 40.8 °F 30.1 in SW 9 mph 15 mph 76 % 0 in
12:17 48.2 °F 41 °F 30.1 in SW 9 mph 15 mph 76 % 0 in
12:22 48.6 °F 41.4 °F 30.1 in SW 10 mph 15 mph 76 % 0 in
12:27 48.6 °F 41.4 °F 30.1 in WSW 11 mph 15 mph 76 % 0 in
12:32 48.6 °F 41.7 °F 30.1 in SW 14 mph 16 mph 77 % 0 in
12:42 48.7 °F 41.9 °F 30.1 in SSW 8 mph 16 mph 77 % 0 in
12:52 48.7 °F 41.9 °F 30.1 in SSW 13 mph 15 mph 77 % 0 in
12:57 48.7 °F 41.9 °F 30.1 in SW 15 mph 16 mph 77 % 0 in
13:02 48.9 °F 42.4 °F 30.1 in SSW 9 mph 16 mph 78 % 0 in
13:12 49.1 °F 42.6 °F 30.1 in WSW 10 mph 16 mph 78 % 0 in
13:17 49.3 °F 43 °F 30.1 in SW 6 mph 17 mph 79 % 0 in
13:22 49.3 °F 43 °F 30.1 in WSW 10 mph 17 mph 79 % 0 in
13:32 49.3 °F 43.3 °F 30.1 in SW 12 mph 18 mph 80 % 0 in
13:42 49.5 °F 43.2 °F 30.1 in SW 10 mph 18 mph 79 % 0 in
13:47 49.6 °F 43.7 °F 30.1 in SSW 9 mph 16 mph 80 % 0 in
13:52 49.6 °F 44.1 °F 30.1 in SW 13 mph 16 mph 81 % 0 in
14:02 49.6 °F 44.4 °F 30.1 in SW 8 mph 17 mph 82 % 0 in
14:12 49.8 °F 44.8 °F 30.1 in WSW 6 mph 17 mph 83 % 0 in
14:17 49.8 °F 44.8 °F 30.1 in SW 9 mph 15 mph 83 % 0 in
14:22 49.8 °F 44.8 °F 30.1 in SW 8 mph 15 mph 83 % 0 in
14:27 50.2 °F 45.5 °F 30.1 in WSW 10 mph 15 mph 84 % 0 in
14:32 50.4 °F 45.3 °F 30.1 in West 14 mph 15 mph 83 % 0 in
14:42 50.2 °F 45.5 °F 30.1 in SW 8 mph 14 mph 84 % 0 in
14:47 50.4 °F 46 °F 30.1 in SW 11 mph 14 mph 85 % 0 in
14:52 50.4 °F 46 °F 30.1 in SW 6 mph 14 mph 85 % 0 in
14:57 50.4 °F 46 °F 30.1 in SW 10 mph 14 mph 85 % 0 in
15:02 50.5 °F 46.2 °F 30.1 in SSW 8 mph 14 mph 85 % 0 in
15:12 50.5 °F 45.9 °F 30.1 in SW 8 mph 14 mph 84 % 0 in
15:17 50.5 °F 45.9 °F 30.1 in SW 5 mph 13 mph 84 % 0 in
15:22 50.7 °F 46 °F 30 in WSW 5 mph 13 mph 84 % 0 in
15:27 50.9 °F 46.2 °F 30 in SW 7 mph 11 mph 84 % 0 in
15:32 51.1 °F 46.4 °F 30 in SSW 10 mph 11 mph 84 % 0 in
15:37 51.1 °F 46.8 °F 30 in SSE 9 mph 13 mph 85 % 0 in
15:42 51.1 °F 46.8 °F 30 in SW 8 mph 13 mph 85 % 0 in
15:47 51.1 °F 46.8 °F 30 in SSW 3 mph 13 mph 85 % 0 in
15:52 51.1 °F 46.8 °F 30 in SSW 5 mph 13 mph 85 % 0 in
15:57 51.1 °F 46.8 °F 30 in SW 3 mph 11 mph 85 % 0 in
16:02 51.1 °F 46.8 °F 30 in WSW 4 mph 11 mph 85 % 0 in
16:12 50.7 °F 46.8 °F 30 in SSW 4 mph 10 mph 86 % 0 in
16:17 50.7 °F 46.8 °F 30 in SSW 5 mph 11 mph 86 % 0 in
16:22 50.7 °F 46.8 °F 30 in SW 6 mph 11 mph 86 % 0 in
16:32 51.1 °F 47.3 °F 30 in SW 5 mph 10 mph 87 % 0 in
16:37 51.1 °F 47.3 °F 30 in SSW 6 mph 10 mph 87 % 0 in
16:42 50.7 °F 47.3 °F 30 in SW 6 mph 10 mph 88 % 0 in
16:47 50.5 °F 47.5 °F 30 in SW 5 mph 10 mph 89 % 0 in
16:52 50.4 °F 47.3 °F 30 in SSW 3 mph 9 mph 89 % 0 in
16:57 50.4 °F 47.3 °F 30 in SW 3 mph 8 mph 89 % 0 in
17:02 50.5 °F 47.5 °F 30 in WSW 3 mph 8 mph 89 % 0 in
17:07 50.9 °F 47.1 °F 30 in SW 4 mph 5 mph 87 % 0 in
17:12 51.3 °F 47.3 °F 30 in SW 7 mph 7 mph 86 % 0 in
17:17 51.4 °F 47.5 °F 30 in SW 5 mph 7 mph 86 % 0 in
17:22 51.6 °F 47.3 °F 30 in SW 4 mph 8 mph 85 % 0 in
17:27 51.6 °F 47.5 °F 30 in SW 4 mph 8 mph 86 % 0 in
17:32 51.4 °F 47.7 °F 30 in SW 6 mph 8 mph 87 % 0 in
17:37 51.3 °F 47.5 °F 30 in SSW 5 mph 8 mph 87 % 0 in
17:42 51.3 °F 47.5 °F 30 in SW 4 mph 8 mph 87 % 0 in
17:47 51.4 °F 47.5 °F 30 in SSW 5 mph 8 mph 86 % 0 in
17:52 51.4 °F 47.5 °F 30 in SW 5 mph 8 mph 86 % 0 in
17:57 51.4 °F 47.5 °F 30 in SW 8 mph 9 mph 86 % 0 in
18:02 51.6 °F 47.5 °F 30 in SW 5 mph 9 mph 86 % 0 in
18:12 51.4 °F 47.5 °F 30 in SW 6 mph 12 mph 86 % 0 in
18:17 51.3 °F 47.5 °F 30 in SSE 4 mph 12 mph 87 % 0 in
18:22 51.3 °F 47.5 °F 30 in SW 8 mph 11 mph 87 % 0 in
18:32 51.3 °F 47.5 °F 30 in SSW 3 mph 11 mph 87 % 0 in
18:37 51.1 °F 47.3 °F 30 in SW 3 mph 11 mph 87 % 0 in
18:42 51.1 °F 47.3 °F 30 in SSW 4 mph 10 mph 87 % 0 in
18:47 51.1 °F 47.3 °F 30 in SW 10 mph 10 mph 87 % 0 in
19:02 50.9 °F 47.5 °F 30 in SW 5 mph 14 mph 88 % 0 in
19:12 50.7 °F 47.3 °F 30 in SW 9 mph 13 mph 88 % 0 in
19:17 50.5 °F 47.5 °F 30 in SW 7 mph 12 mph 89 % 0 in
19:22 50.4 °F 47.5 °F 30 in SW 6 mph 12 mph 90 % 0 in
19:32 50.2 °F 47.7 °F 30 in SW 7 mph 12 mph 91 % 0 in
19:42 50.2 °F 47.7 °F 30 in SW 6 mph 10 mph 91 % 0 in
19:47 50 °F 47.5 °F 30 in SW 5 mph 9 mph 91 % 0 in
19:52 49.8 °F 47.3 °F 30 in SW 4 mph 9 mph 91 % 0 in
19:57 49.8 °F 47.7 °F 30 in SW 7 mph 9 mph 92 % 0 in
20:02 49.8 °F 47.3 °F 30 in SW 5 mph 9 mph 91 % 0 in
20:07 50 °F 47.5 °F 30 in SW 6 mph 10 mph 91 % 0 in
20:12 50 °F 47.5 °F 30 in SW 5 mph 10 mph 91 % 0 in
20:17 49.8 °F 47.3 °F 30 in SW 5 mph 11 mph 91 % 0 in
20:22 49.8 °F 47.3 °F 30 in WSW 8 mph 11 mph 91 % 0 in
20:32 49.8 °F 46.9 °F 30 in SW 10 mph 11 mph 90 % 0 in
20:42 49.8 °F 46.9 °F 30 in SSW 4 mph 10 mph 90 % 0 in
20:47 50 °F 47.1 °F 30 in SW 5 mph 10 mph 90 % 0 in
20:52 50 °F 47.1 °F 30 in SW 7 mph 10 mph 90 % 0 in
20:57 49.8 °F 46.9 °F 30 in SSW 1 mph 9 mph 90 % 0 in
21:02 50 °F 47.1 °F 30 in SW 4 mph 9 mph 90 % 0 in
21:12 50 °F 47.1 °F 30 in SW 6 mph 9 mph 90 % 0 in
21:17 49.8 °F 46.9 °F 30 in SW 5 mph 10 mph 90 % 0 in
21:22 49.8 °F 46.9 °F 30 in SSW 5 mph 10 mph 90 % 0 in
21:32 49.6 °F 46.8 °F 30 in SSW 8 mph 9 mph 90 % 0 in
21:37 49.6 °F 46.8 °F 30 in SW 9 mph 12 mph 90 % 0 in
21:42 49.6 °F 46.8 °F 30 in SW 8 mph 12 mph 90 % 0 in
21:47 49.5 °F 46.6 °F 30 in SSW 4 mph 11 mph 90 % 0 in
21:52 49.3 °F 46.4 °F 30 in SSW 4 mph 11 mph 90 % 0 in
21:57 49.3 °F 46.4 °F 30 in SSW 5 mph 9 mph 90 % 0 in
22:02 49.3 °F 46.4 °F 30 in SSW 6 mph 9 mph 90 % 0 in
22:12 49.3 °F 46.4 °F 30 in SSW 7 mph 10 mph 90 % 0 in
22:17 49.3 °F 46.4 °F 30 in SSW 6 mph 11 mph 90 % 0 in
22:22 49.3 °F 46.4 °F 30 in SW 8 mph 12 mph 90 % 0 in
22:27 49.3 °F 46.4 °F 30 in SSW 6 mph 12 mph 90 % 0 in
22:32 49.3 °F 46.4 °F 30 in SSW 8 mph 12 mph 90 % 0 in
22:42 49.5 °F 46.4 °F 30 in SSW 5 mph 12 mph 89 % 0 in
22:47 49.5 °F 46.4 °F 30 in SW 11 mph 13 mph 89 % 0 in
22:52 49.6 °F 46.6 °F 30 in SW 5 mph 13 mph 89 % 0 in
23:02 49.5 °F 46.4 °F 30 in SSW 5 mph 12 mph 89 % 0 in
23:12 49.3 °F 46.2 °F 30 in SW 8 mph 12 mph 89 % 0 in
23:17 49.3 °F 46.2 °F 30 in SSW 6 mph 10 mph 89 % 0 in
23:22 49.3 °F 46.2 °F 30 in SSW 4 mph 11 mph 89 % 0 in
23:27 49.3 °F 46.2 °F 30 in SSW 6 mph 11 mph 89 % 0 in
23:32 49.3 °F 46.2 °F 30 in SSW 7 mph 11 mph 89 % 0 in
23:37 49.3 °F 46.2 °F 30 in SSW 7 mph 11 mph 89 % 0 in
23:42 49.1 °F 46 °F 30 in SSW 3 mph 11 mph 89 % 0 in
23:47 48.9 °F 45.9 °F 30 in South 5 mph 10 mph 89 % 0 in
23:52 48.9 °F 45.9 °F 30 in SW 7 mph 10 mph 89 % 0 in
23:57 48.9 °F 45.9 °F 30 in SSW 7 mph 9 mph 89 % 0 in
Meteo18
Compliments of Weather Underground - 4 mb

Script developed by  Jim McMurry - jmcmurry@mwt.net Adapted for the template by  Wim van der Kuil - Leuven-Template.eu

You find our weather info also at:

European Weather Network

Weather Underground

Equipment we use:

Weather-station
Davis Vue

Weather-program
Meteohub

Weather-server
Raspberry PI 2 B+

Provider
1 and 1

Davis Vue

Meteohub

Raspberry PI 2 B+

1 and 1